{"data":{"norad_id":58759,"epoch":"2026-05-25T03:58:49.832256Z","epoch_age_seconds":56775,"freshness":"FRESH","line1":"1 58759U 24009B   26145.16585454  .00009865  00000+0  49957-3 0  9999","line2":"2 58759  49.9825 280.0071 0005433 198.7724 161.3028 15.17517204131171","mean_motion":15.17517204,"eccentricity":0.0005433,"inclination_deg":49.9825,"raan_deg":280.0071,"arg_perigee_deg":198.7724,"mean_anomaly_deg":161.3028,"bstar":0.00049957,"rev_number":13117,"period_min":94.891840185029,"perigee_km":509.60296629001,"apogee_km":517.09125292351,"semimajor_km":6891.4841096068,"source":"CELESTRAK","updated_at":"2026-05-25T13:38:00.963597Z"}}